Location: *
(45.0500°N, 12.0500°E)
Time: 09:20:33
(UTC+00:00)

Terra - Pass Details

Date: 09 April 2020
Orbit: 701 x 703 km, 98.2° (Epoch: 24 May)

Event Time Altitude Azimuth Distance (km) Brightness Sun altitude
Exits shadow 20:29:38 36° 46° (NE) 1,122 2.8 -25.5°
Drops below altitude 10° 20:33:17 10° 2° (N) 2,182 4.9 -26.0°
Sets 20:35:40 0° 354° (N) 3,105 5.9 -26.3°
